STARLINK-2570 (48405 NORAD) Tracking and Keplerian Element Data

This shows tracking and keplerian element data for the satellite.

Feedback or suggestion? Click here.




ElementValue
Catalog48405
NameSTARLINK-2570
Epoch Orbit365
Epoch Day210.91668981
Epoch Year2021
RAAN340.6502
Inclination53.0486
Eccentricity0.0001426
Argument of Perigee75.3512
Mean Anonmoly159.3163
Mean Motion15.20377121
Decay Rate-0.01064556
L11 48405U 21038BE 21210.91668981 -.01064556 00000-0 -52742-1 0 9999
L22 48405 53.0486 340.6502 0001426 75.3512 159.3163 15.20377121 3656

Live tracking and technical data element details for STARLINK-2570 (NORAD 48405). STARLINK-2570 can be tracked NOW for your location showing map with azimuth and elevation plus other details from your city location.

Track the satellite on the map from your city or location and see movement details for azimuth, elevation, latitude, longitude, range, height, and movement on the map or in text.







IsCatalogInMostPopularTable: catalog: 48405, numindb: 30
Update: records affected: 1



GetName: 48405 STARLINK-2570

Hit Count: updated at: Sat, 31 Jul 2021 15:09:52 GMT